Weather History for Prairie Du Chien, WI

Change the Weather History Date:

Saturday, November 24, 2012

  Actual Average Record
Temperature  
Mean Temperature 26 °F -  
Max Temperature 32 °F 41 °F 63 °F (1988)
Min Temperature 21 °F 23 °F -5 °F (1950)
Degree Days  
Heating Degree Days 38    
Moisture  
Dew Point 16 °F    
Average Humidity 62    
Maximum Humidity 74    
Minimum Humidity 51    
Precipitation  
Precipitation 0.00 in - - ()
Sea Level Pressure  
Sea Level Pressure 30.14 in    
Wind  
Wind Speed - (North)    
Max Wind Speed -    
Max Gust Speed -    
Visibility 10 miles    
Events      
Averages and records for this station are not official NWS values.
T = Trace of Precipitation, MM = Missing Value Source: NWS Daily Summary

Daily Weather History Graph

Daily Weather History Graph

Search for Another Location

Airport:

Trip Planner

Search our weather history database for the weather conditions in past years. The results will help you decide how hot, cold, wet, or windy it might be!

Date:

Astronomy

Nov. 24, 2012 Rise Set
Actual Time 7:08 AM CST 4:33 PM CST
Civil Twilight 6:37 AM CST 5:05 PM CST
Nautical Twilight 6:02 AM CST 5:40 PM CST
Astronomical Twilight 5:28 AM CST 6:13 PM CST
Moon 2:22 PM CST (11/24) 3:21 AM CST (11/24)
Length of Visible Light 10h 27m
Length of Day
9h 25m
Waxing Gibbous, 87% of the Moon is Illuminated
Nov 24
Waxing Gibbous
Nov 28
Full
Dec 6
Last Quarter
Dec 13
New
Dec 19
First Quarter

Hourly Weather History & Observations

Time (CST) Temp. Dew Point Humidity Pressure Visibility Wind Dir Wind Speed Gust Speed Precip Events Conditions
12:15 AM 26.6 °F 14.0 °F 59% 30.29 in 10.0 mi North - - N/A   Overcast
12:35 AM 26.6 °F 14.0 °F 59% 30.28 in 10.0 mi North - - N/A   Overcast
12:55 AM 26.6 °F 14.0 °F 59% 30.28 in 10.0 mi North - - N/A   Overcast
1:15 AM 26.6 °F 14.0 °F 59% 30.28 in 10.0 mi North - - N/A   Overcast
1:35 AM 26.6 °F 15.8 °F 64% 30.28 in 10.0 mi North - - N/A   Overcast
1:55 AM 26.6 °F 15.8 °F 64% 30.29 in 10.0 mi North - - N/A   Overcast
2:15 AM 26.6 °F 15.8 °F 64% 30.29 in 10.0 mi North - - N/A   Overcast
2:35 AM 24.8 °F 14.0 °F 64% 30.28 in 10.0 mi North - - N/A   Overcast
2:55 AM 24.8 °F 14.0 °F 64% 30.28 in 10.0 mi North - - N/A   Overcast
3:15 AM 24.8 °F 14.0 °F 64% 30.29 in 10.0 mi North - - N/A   Overcast
3:55 AM 24.8 °F 14.0 °F 64% 30.27 in 10.0 mi North - - N/A   Overcast
4:15 AM 24.8 °F 14.0 °F 64% 30.27 in 10.0 mi North - - N/A   Overcast
4:35 AM 24.8 °F 14.0 °F 64% 30.27 in 10.0 mi North - - N/A   Overcast
4:55 AM 24.8 °F 15.8 °F 69% 30.26 in 10.0 mi North - - N/A   Mostly Cloudy
5:15 AM 24.8 °F 14.0 °F 64% 30.27 in 10.0 mi North - - N/A   Mostly Cloudy
5:35 AM 23.0 °F 14.0 °F 68% 30.27 in 10.0 mi North - - N/A   Scattered Clouds
5:55 AM 23.0 °F 14.0 °F 68% 30.27 in 10.0 mi North - - N/A   Scattered Clouds
6:15 AM 23.0 °F 14.0 °F 68% 30.27 in 10.0 mi North - - N/A   Scattered Clouds
6:35 AM 21.2 °F 14.0 °F 74% 30.27 in 10.0 mi North - - N/A   Clear
6:55 AM 21.2 °F 14.0 °F 74% 30.28 in 10.0 mi North - - N/A   Clear
7:15 AM 21.2 °F 14.0 °F 74% 30.28 in 10.0 mi North - - N/A   Clear
7:35 AM 21.2 °F 14.0 °F 74% 30.28 in 10.0 mi North - - N/A   Clear
7:55 AM 21.2 °F 14.0 °F 74% 30.28 in 10.0 mi North - - N/A   Clear
8:15 AM 23.0 °F 14.0 °F 68% 30.28 in 10.0 mi North - - N/A   Clear
8:35 AM 23.0 °F 14.0 °F 68% 30.27 in 10.0 mi North - - N/A   Clear
8:55 AM 23.0 °F 14.0 °F 68% 30.27 in 10.0 mi North - - N/A   Clear
9:15 AM 23.0 °F 14.0 °F 68% 30.27 in 10.0 mi North - - N/A   Clear
9:35 AM 23.0 °F 14.0 °F 68% 30.26 in 10.0 mi North - - N/A   Clear
9:55 AM 24.8 °F 14.0 °F 64% 30.26 in 10.0 mi North - - N/A   Clear
10:15 AM 24.8 °F 14.0 °F 64% 30.26 in 10.0 mi North - - N/A   Clear
10:35 AM 24.8 °F 14.0 °F 64% 30.25 in 10.0 mi North - - N/A   Clear
10:55 AM 26.6 °F 14.0 °F 59% 30.24 in 10.0 mi North - - N/A   Clear
11:15 AM 26.6 °F 15.8 °F 64% 30.23 in 10.0 mi North - - N/A   Clear
11:35 AM 26.6 °F 14.0 °F 59% 30.20 in 10.0 mi North - - N/A   Clear
11:55 AM 28.4 °F 15.8 °F 59% 30.19 in 10.0 mi North - - N/A   Clear
12:15 PM 30.2 °F 15.8 °F 55% 30.18 in 10.0 mi North - - N/A   Clear
12:35 PM 30.2 °F 15.8 °F 55% 30.18 in 10.0 mi North - - N/A   Clear
12:55 PM 32.0 °F 15.8 °F 51% 30.14 in 10.0 mi North - - N/A   Clear
1:15 PM 32.0 °F 15.8 °F 51% 30.14 in 10.0 mi North - - N/A   Clear
1:35 PM 32.0 °F 15.8 °F 51% 30.12 in 10.0 mi North - - N/A   Mostly Cloudy
1:55 PM 32.0 °F 17.6 °F 55% 30.11 in 10.0 mi North - - N/A   Overcast
2:15 PM 32.0 °F 15.8 °F 51% 30.10 in 10.0 mi North - - N/A   Overcast
2:35 PM 32.0 °F 17.6 °F 55% 30.09 in 10.0 mi North - - N/A   Overcast
2:55 PM 32.0 °F 15.8 °F 51% 30.09 in 10.0 mi North - - N/A   Overcast
3:15 PM 32.0 °F 17.6 °F 55% 30.08 in 10.0 mi North - - N/A   Overcast
3:35 PM 32.0 °F 17.6 °F 55% 30.08 in 10.0 mi North - - N/A   Overcast
3:55 PM 32.0 °F 17.6 °F 55% 30.06 in 10.0 mi North - - N/A   Overcast
4:15 PM 32.0 °F 17.6 °F 55% 30.04 in 10.0 mi North - - N/A   Overcast
4:35 PM 32.0 °F 17.6 °F 55% 30.03 in 10.0 mi North - - N/A   Overcast
4:55 PM 32.0 °F 17.6 °F 55% 30.02 in 10.0 mi North - - N/A   Overcast
5:15 PM 32.0 °F 17.6 °F 55% 30.01 in 10.0 mi North - - N/A   Overcast
5:35 PM 32.0 °F 17.6 °F 55% 30.00 in 10.0 mi North - - N/A   Overcast
5:55 PM 30.2 °F 19.4 °F 64% 29.99 in 10.0 mi North - - N/A   Overcast
6:15 PM 30.2 °F 17.6 °F 60% 29.99 in 10.0 mi North - - N/A   Overcast
6:35 PM 30.2 °F 17.6 °F 60% 29.98 in 10.0 mi North - - N/A   Overcast
6:55 PM 30.2 °F 17.6 °F 60% 29.97 in 10.0 mi North - - N/A   Overcast
7:15 PM 30.2 °F 19.4 °F 64% 29.96 in 10.0 mi North - - N/A   Overcast
7:35 PM 30.2 °F 17.6 °F 60% 29.96 in 10.0 mi North - - N/A   Overcast
7:55 PM 30.2 °F 17.6 °F 60% 29.96 in 10.0 mi North - - N/A   Overcast
8:15 PM 30.2 °F 17.6 °F 60% 29.96 in 10.0 mi North - - N/A   Overcast
8:35 PM 30.2 °F 17.6 °F 60% 29.96 in 10.0 mi North - - N/A   Overcast
8:55 PM 30.2 °F 17.6 °F 60% 29.95 in 10.0 mi North - - N/A   Overcast
9:15 PM 30.2 °F 17.6 °F 60% 29.95 in 10.0 mi North - - N/A   Overcast
9:35 PM 30.2 °F 17.6 °F 60% 29.94 in 10.0 mi North - - N/A   Overcast
9:55 PM 30.2 °F 19.4 °F 64% 29.93 in 10.0 mi North - - N/A   Overcast
10:15 PM 30.2 °F 19.4 °F 64% 29.92 in 10.0 mi North - - N/A   Overcast
10:35 PM 30.2 °F 19.4 °F 64% 29.92 in 10.0 mi North - - N/A   Overcast
10:55 PM 30.2 °F 19.4 °F 64% 29.91 in 10.0 mi North - - N/A   Overcast
11:15 PM 30.2 °F 19.4 °F 64% 29.89 in 10.0 mi North - - N/A   Overcast
11:35 PM 30.2 °F 19.4 °F 64% 29.88 in 10.0 mi North - - N/A   Scattered Clouds
11:55 PM 30.2 °F 19.4 °F 64% 29.87 in 10.0 mi North - - N/A   Clear